Погода в Атбасаре

Погода в Атбасаре : погода сейчас, прогноз погоды и архив. Всё, что Вы хотите узнать о погоде в Атбасаре!

Хотите узнать прогноз погоды в Атбасаре? Тогда Вам сюда: Погода в Атбасаре

Поиск расширенной информации на нашем сайте:

Другие новости

Новости СМИ2

Главная страница сайта

Новости сайта

02.10.2013

Напоминаем, что на нашем новом сайте вы можете получить высокодетализированные прогнозы погоды по пунктам России, СНГ и мира (включающие важные для авиации метеовеличины, такие как направление и скорость ветра, видимость, явления погоды, количество и форма облачности, нижняя и верхняя граница облачности), а также ознакомиться с разнообразными материалами по авиационной метеорологии и подборкой полезных ссылок на эту тему.

Сайт Метеоцентр.Азия посвящён разработке технологий оптимизации авиаметеорологического обслуживания, включая проектирование и перспективное создание нескольких автоматизированных авиаметеорологических систем:
- система выпуска высокодетальных прогностических карт явлений погоды для нижнего воздушного пространства по России и ближнему зарубежью;
- система верификации прогнозов TAF (выпускаемых синоптиками официальных АМСГ РФ и ближнего зарубежья) и AUTOTAF (выпускаемых сайтом Метеоцентр.Азия) - выявление ошибок, онлайн-сопоставление с фактической погодой METAR, автоматическое внесение коррективов в прогнозы при резком отклонении фактической погоды от прогноза, подсчёт оправдываемости прогнозов по элементам и в целом;
- система обработки, анализа и отображения авиаметеорологической информации для применения провайдерами метеорологической информации.


Погода в Атбасаре - сегодня

Время (UTC), дата Ветер
(°,м/с) 
Видим.   Явления Облачность Т
(°С)
Тd
(°С)
f(%) Тe
(°С)
Pmin
(гПа)
dP
(гПа)
Po
(мм)
O2
(г/м3)
Тmin Tmax R s Состояние
почвы
21 17.01.17 тихо ()   н/о  переохл. туман  ясно 
-22.1 -24.9 78 -22  1042.8  -0.8  751  331           
00 18.01.17 тихо ()   н/о  переохл. туман  ясно 
-23.7 -26.5 78 -24  1042.2  -0.8  750  333           
03 18.01.17 тихо ()   0500 м  переохл. туман  10/0 верхняя 
[Cs]
-22.1 -24.9 78 -22  1041.4  -0.5  750  330        40  равномерный
сухой снег
100% 
06 18.01.17 тихо ()   0500 м  переохл. туман  ?/?  
-21.2 -23.9 79 -21  1041.1  -0.2  749  329  -23.8         
09 18.01.17 тихо ()   4000 м  дымка{туман}  9/9 300 м 
[St]
-18 -20.6 80 -18  1039.1  -1.4  748  324           
12 18.01.17 тихо ()   10 км  снежные зёрна{туман}  10/10 300 м 
[St]
-18.1 -20.7 80 -18  1038.4  -0.6  748  324           
15 18.01.17 тихо ()   н/о  дымка{снег, туман}  ясно 
-19.8 -22 83 -20  1037.9  -0.8  747  326    -17.9  0.0     
18 18.01.17 тихо ()   н/о  в посл. час туман{снег}  ясно 
-21.8 -24.2 81 -22  1037.2  -1  747  329    -17.9  0.0     
21 18.01.17 230 (ЮЗ) н/о  переохл. туман  ясно 
-20.8 -23.1 82 -24  1034.9  -2  745  327           
00 19.01.17 180 (Ю) н/о  в посл. час туман  3/0 верхняя 
[Ci fib]
-20.2 -22.9 79 -23  1034.1  -0.7  745  326           
03 19.01.17 тихо ()   20000 м    6/0 верхняя 
[Ci fib]
-21.8 -24.5 79 -22  1033.4  -0.9  744  327        40  равномерный
сухой снег
100% 
06 19.01.17 тихо ()   20000 м    8/0 верхняя 
[Cs]
-20.5 -23.2 79 -21  1032.9  -0.3  744  326  -23         
09 19.01.17 тихо ()   20000 м    6/0 верхняя 
[Ci]
-17.7 -20.3 80 -18  1030.4  -2  742  321           
12 19.01.17 тихо ()   20000 м    10/6 1000 м средняя 
[Sc|As op]
-16.4 -19.1 80 -16  1030  -0.1  742  320           
15 19.01.17 тихо ()   н/о  слаб. снег  10/10 600 м 
[Sc]
-15 -17.4 82 -15  1027.9  -1.8  741  317    -15  0.2     
18 19.01.17 180 (Ю) н/о  {снег}  ясно 
-14.8 -17.1 83 -17  1026.6  -1.3  740  317    -15  0.2     
21 19.01.17 180 (Ю) н/о    ясно 
-19.6 -21.9 82 -22  1025.9  -1.4  739  322           
00 20.01.17 230 (ЮЗ) н/о    ясно 
-20.2 -23.3 76 -23  1025.2  -0.8  738  323           
03 20.01.17 230 (ЮЗ) 4000 м  слаб. снег  10/10 600 м 
[Sc]
-19.7 -22.9 76 -22  1024.6  -0.5  738  322      0.2  41  равномерный
сухой снег
100% 
06 20.01.17 230 (ЮЗ) 20000 м  {снег}  8/0 верхняя 
[Ci]
-19.3 -22.6 75 -25  1024.7  0.2  738  322  -20.4    0.2     
09 20.01.17 230 (ЮЗ) 20000 м  позёмок  9/0 средняя, верхняя 
[Ac trans|Ci]
-18.8 -22 76 -27  1022.6  -1.9  736  320           
12 20.01.17 230 (ЮЗ) 20000 м  позёмок  9/0 средняя, верхняя 
[Ac lent|Ci fib]
-17.3 -20.7 75 -25  1021.6  -0.8  736  318           
15 20.01.17 230 (ЮЗ) н/о  позёмок  8/0 средняя, верхняя 
[Ac lent|Ci fib]
-16.6 -19.8 76 -24  1019.7  -1.7  735  317    -16.3  0.0     
18 20.01.17 230 (ЮЗ) н/о  слаб. снег  10/0 средняя 
[As op]
-18.9 -22.4 74 -27  1018.8  -1.2  734  319    -16.3  0.0     
21 20.01.17 230 (ЮЗ) н/о  в посл. час ливневой снег  10/10 600 м 
[Sc]
-20.1 -23.5 74 -29  1017.5  -1.4  733  320           
Время (UTC), дата Ветер
(°,м/с) 
Видим.   Явления Облачность Т
(°С)
Тd
(°С)
f(%) Тe
(°С)
Pmin
(гПа)
dP
(гПа)
Po
(мм)
O2
(г/м3)
Тmin Tmax R s Состояние
почвы

Для получения пояснительной информации подведите курсор к названию столбца.

ПОГОДА в Атбасаре - архив

Всё, что Вы хотите узнать о погоде в Атбасаре - удобно и подробно!

Выберите нужную дату (начиная с 1 января 2015* года) и нажмите кнопку "Найти".
Будут отображены архивные сводки погоды по пункту Атбасар, начиная с указанной даты.


Отображать данные в формате CSV (для использования в таблицах Excel)


Внимание! Наш архив погоды предназначен исключительно для личного некоммерческого использования в познавательных целях. Если Вам необходимы официальные справки о состоянии погоды (для производственных, юридических, коммерческих и т.п. целей), обращайтесь в органы Росгидромета.

*Примечание: данная дата относится к архиву по метеостанциям СССР (Россия, СНГ, Балтия).
Архив по метеостанциям Зарубежной Европы и Азии (кроме Китая) хранится 10 дней, по другим регионам земного шара (Китай, Африка, Америка, Австралия, Океания) - 1 день.

Атбасар - район местоположения метеостанции


Название, широта, долгота, высота метеостанции:
Атбасар 51.8°ш. 68.4°д. 304 м над ур. моря [Казахстан]

Дополнительная информация

В oтличие oт бoльшинства пoгoдных сайтoв мы публикуем пoдрoбную метеoинфoрмацию в детальнoм прoфессиoнальнoм фoрмате.

Характеристики температуры и влажнoсти вoздуха измеряются на высoте 2 м в тени вдали oт зданий и деревьев.
Скoрoсть ветра измеряется на высoте 10 м (на урoвне рoста челoвека скoрoсть ветра ниже в 1.5-2 раза). Если метеoстанция нахoдится в гoрoде или в лесу, тo скoрoсть ветра занижена на 2-4 м/с пo сравнению с oткрытым местoм. Скoрoсть ветра над акватoриями крупных рек и oзёр, а также на вершинах хoлмoв на 2-5 м/с выше, чем в oбычных услoвиях.
Атмoсфернoе давление в разных тoчках местнoсти мoжет значительнo oтличаться oт давления на метеoстанции, в зависимoсти oт услoвий рельефа (при пoдъёме на 10 м давление пoнижается примернo на 1 мм рт.ст.).